Location: Montreal
(45.5000°N, 73.5833°W)
Time: 15:31:19
(UTC-05:00)

Tiangong 2 - Pass Details

Date: 09 October 2017
Orbit: 387 x 389 km, 42.8° (Epoch: 18 December)

Event Time Altitude Azimuth Distance (km) Brightness Sun altitude
Exits shadow 04:57:07 11° 151° (SSE) 1,389 4.0 -22.7°
Maximum altitude 04:57:18 11° 147° (SSE) 1,387 4.1 -22.7°
Drops below altitude 10° 04:58:00 10° 135° (SE) 1,418 4.3 -22.6°
Sets 05:01:34 0° 93° (E) 2,280 6.3 -22.0°
